Location: Sungai Laei
(2.6000°N, 113.7167°E)
Time: 11:47:56
(UTC+00:00)

ARIANE 42L R/B - Visible Passes

Search period start: 26 September 2022 00:00
Search period end: 06 October 2022 00:00
Orbit: 454 x 36542 km, 4.0° (Epoch: 25 September)

Date Brightness Start Highest point End Pass type
(mag) Time Alt. Az. Time Alt. Az. Time Alt. Az.
26 Sep 6.0 00:38:32 10° W 09:10:19 76° ESE 10:54:01 10° E visible
27 Sep 5.3 19:54:42 14° E 19:54:42 14° E 19:55:20 10° E visible
28 Sep 10.3 07:34:56 10° W 09:06:58 33° W 12:55:06 10° W visible
29 Sep 6.9 04:50:53 10° W 06:39:21 72° WSW 14:50:08 60° W visible
30 Sep 6.8 02:21:23 10° W 07:53:29 85° S 12:31:56 45° E visible
01 Oct 3.4 21:32:14 14° W 21:35:05 66° S 21:46:48 10° E visible
03 Oct 7.8 06:45:30 10° W 08:24:10 41° W 16:28:03 18° W visible
04 Oct 6.6 04:06:42 10° W 05:58:35 79° SW 14:09:52 79° WNW visible
05 Oct 6.8 01:38:29 10° W 11:15:56 90° S 11:51:39 30° E visible
